DW7831 Weather Reports


time (UTC)temp
F
wind
direction
speed
knots
gust
knots
rain 1hr
in
rain 24hr
in
rain mn
in
humidity
%
barometer
mb
20260508110016 37 279 0.0 0.0 0.00 0.00 0.00 36 1012.8
20260508104507 37 279 1.7 0.0 0.00 0.00 0.00 35 1012.7
20260508103000 37 285 0.9 0.0 0.00 0.00 0.00 34 1012.5
20260508101559 37 287 0.0 0.0 0.00 0.00 0.00 32 1012.4
20260508100055 37 287 0.0 0.0 0.00 0.00 0.00 32 1012.1
20260508094609 36 304 0.0 0.0 0.00 0.00 0.00 35 1012.0
20260508093047 36 304 0.0 0.0 0.00 0.00 0.00 33 1011.9
20260508091543 35 304 0.0 0.0 0.00 0.00 0.00 28 1011.8
20260508090043 35 304 0.0 0.0 0.00 0.00 0.00 27 1011.8
20260508084535 35 304 0.0 0.0 0.00 0.00 0.00 24 1011.5
20260508083030 34 304 0.0 0.0 0.00 0.00 0.00 20 1011.4
20260508081553 34 304 0.0 0.0 0.00 0.00 0.00 11 1011.4
20260508080022 33 304 0.0 0.0 0.00 0.00 0.00 8 1011.4
20260508074518 33 304 0.0 0.0 0.00 0.00 0.00 5 1011.3
20260508073015 32 305 0.0 0.0 0.00 0.00 0.00 8 1011.5
20260508071525 31 305 0.0 0.0 0.00 0.00 0.00 13 1011.3
20260508070007 31 305 0.0 0.0 0.00 0.00 0.00 16 1011.4
20260508064508 31 305 0.0 0.0 0.00 0.00 0.00 17 1011.1
20260508063117 31 305 0.0 0.0 0.00 0.00 0.00 19 1011.2
20260508061557 32 305 0.0 0.0 0.00 0.00 0.00 20 1011.1
20260508060056 32 305 0.0 0.0 0.00 0.00 0.00 21 1011.1
20260508054549 32 305 0.0 0.0 0.00 0.00 0.00 22 1011.3
20260508053043 32 305 0.0 0.0 0.00 0.00 0.00 23 1011.2
20260508051541 31 305 0.0 0.0 0.00 0.00 0.00 26 1011.2
20260508050037 31 305 0.0 0.0 0.00 0.00 0.00 32 1011.4
20260508044536 31 305 0.0 0.0 0.00 0.00 0.00 36 1011.5
20260508043033 31 305 0.0 0.0 0.00 0.00 0.00 39 1011.3
20260508041531 32 305 0.0 0.0 0.00 0.00 0.00 43 1011.1
20260508040028 32 305 0.0 0.0 0.00 0.00 0.00 48 1011.1
20260508034524 33 305 0.0 0.0 0.00 0.00 0.02 51 1011.1
20260508033022 33 305 0.0 0.0 0.00 0.00 0.02 54 1011.3
20260508031516 34 305 0.0 0.0 0.00 0.00 0.02 56 1011.2
20260508030015 35 305 0.0 0.0 0.00 0.00 0.02 58 1011.1
20260508024517 35 305 0.0 0.0 0.00 0.00 0.02 59 1011.0
20260508023008 36 305 0.0 0.0 0.00 0.00 0.02 62 1011.1
20260508021501 37 305 0.0 0.0 0.00 0.00 0.02 64 1011.0
20260508020105 37 305 0.0 0.0 0.00 0.00 0.02 65 1011.0
20260508014556 38 305 0.0 0.0 0.00 0.00 0.02 65 1010.8
20260508013050 39 305 0.0 0.0 0.00 0.00 0.02 64 1010.7
20260508011545 40 305 0.0 0.0 0.00 0.00 0.02 64 1010.7
20260508010044 41 305 0.0 0.0 0.00 0.00 0.02 62 1010.6
20260508004539 43 305 0.0 0.0 0.00 0.00 0.02 59 1010.5
20260508003034 44 305 0.0 0.0 0.00 0.00 0.02 56 1010.1
20260508001535 45 305 0.0 0.0 0.00 0.00 0.02 52 1009.8
20260508000033 46 305 0.0 0.0 0.00 0.00 0.02 50 1009.8
20260507234533 47 304 0.0 0.0 0.00 0.00 0.02 48 1009.8
20260507233041 48 304 0.0 0.0 0.00 0.00 0.02 47 1009.5
20260507231536 48 315 1.7 0.0 0.00 0.00 0.02 46 1009.7
20260507230034 49 315 1.7 0.0 0.00 0.00 0.02 46 1009.7
20260507224540 48 303 2.6 0.0 0.00 0.00 0.02 46 1009.6
20260507223033 49 307 4.3 0.0 0.00 0.00 0.02 45 1009.5
20260507221535 49 298 2.6 0.0 0.00 0.00 0.02 44 1009.4
20260507220027 49 300 2.6 0.0 0.00 0.00 0.02 46 1009.6
20260507214524 49 321 1.7 0.0 0.00 0.00 0.02 45 1009.7
20260507213018 49 271 1.7 0.0 0.00 0.00 0.02 45 1009.7
20260507211521 50 310 1.7 0.0 0.00 0.00 0.02 44 1009.5
20260507210008 49 265 1.7 0.0 0.00 0.00 0.02 45 1009.4
20260507204505 49 281 2.6 0.0 0.00 0.00 0.02 44 1009.5
20260507203111 49 277 1.7 0.0 0.00 0.00 0.02 46 1009.6
20260507201600 51 270 4.3 0.0 0.00 0.00 0.02 44 1009.6
20260507200107 51 273 3.5 0.0 0.00 0.00 0.02 44 1009.4
20260507194549 50 225 4.3 0.0 0.00 0.00 0.02 47 1009.7
20260507193048 50 267 4.3 0.0 0.00 0.00 0.02 48 1009.9
20260507191540 48 334 2.6 0.0 0.00 0.00 0.02 52 1010.0
20260507190037 49 305 1.7 0.0 0.00 0.00 0.02 50 1010.1
20260507184532 48 280 1.7 0.0 0.00 0.00 0.02 53 1010.2
20260507183028 48 294 3.5 0.0 0.00 0.00 0.02 51 1010.3
20260507181529 48 263 2.6 0.0 0.00 0.00 0.02 50 1010.4
20260507180026 48 252 4.3 0.0 0.00 0.00 0.02 53 1010.4
20260507174523 47 290 2.6 0.0 0.00 0.00 0.02 51 1010.6
20260507173030 48 292 3.5 0.0 0.00 0.00 0.02 50 1010.4
20260507171517 48 313 2.6 0.0 0.00 0.00 0.02 51 1010.7
20260507170016 48 284 3.5 0.0 0.00 0.00 0.02 50 1010.7
20260507164510 48 290 3.5 0.0 0.00 0.00 0.02 50 1010.7
20260507163010 48 257 2.6 0.0 0.00 0.00 0.02 50 1010.9
20260507161503 47 287 3.5 0.0 0.00 0.00 0.02 51 1011.0
20260507160100 47 234 3.5 0.0 0.00 0.00 0.02 52 1011.0
20260507154559 47 24 2.6 0.0 0.00 0.00 0.02 52 1011.1
20260507153051 46 234 3.5 0.0 0.00 0.00 0.02 54 1011.7
20260507151547 46 286 3.5 0.0 0.00 0.00 0.02 55 1011.6
20260507150044 45 290 2.6 0.0 0.00 0.00 0.02 54 1011.5
20260507144539 45 323 6.1 0.0 0.00 0.00 0.02 54 1011.6
20260507143037 44 304 5.2 0.0 0.00 0.00 0.01 56 1011.8
20260507141530 44 236 5.2 0.0 0.00 0.00 0.01 57 1011.5
20260507140032 43 284 4.3 0.0 0.00 0.00 0.01 57 1011.5
20260507134528 43 309 3.5 0.0 0.00 0.00 0.01 57 1011.7
20260507133025 42 274 3.5 0.0 0.00 0.00 0.01 58 1011.5
20260507131523 41 287 3.5 0.0 0.00 0.00 0.01 59 1011.5
20260507130014 41 285 3.5 0.0 0.00 0.00 0.01 59 1011.7
20260507124511 40 269 3.5 0.0 0.00 0.00 0.01 59 1011.5
20260507123008 40 280 0.9 0.0 0.00 0.00 0.01 59 1011.5
20260507121501 39 244 2.6 0.0 0.00 0.00 0.01 59 1011.6
20260507120103 38 229 2.6 0.0 0.00 0.00 0.01 59 1011.6
20260507114634 38 271 0.9 0.0 0.00 0.00 0.01 56 1011.4
20260507113048 38 263 0.9 0.0 0.00 0.00 0.01 51 1011.6
20260507111546 37 259 0.9 0.0 0.00 0.00 0.01 44 1011.2